Tracking 21612 objects as of 20-Oct-2020
HD Live streaming from Space Station
objects crossing your sky now

DELTA 2 DEB


DELTA 2 DEB is no longer on orbit


NORAD ID: 35428
Int'l Code: 2004-045D
Perigee: N/A
Apogee: N/A
Inclination: N/A
Period: N/A
Semi major axis: N/A
RCS: N/A
Launch date: November 6, 2004
Source: United States (US)
Launch site: AIR FORCE EASTERN TEST RANGE (AFETR)
Decay date: 2014-09-09

Note: This is SATELLITE DEBRIS
aabbcc
Your satellite tracking list
Your tracking list is empty




NASA's NSSDC Master Catalog

Two Line Element Set (TLE):
1 35428U 04045D   20281.13302935 +.00154962 +69839-6 +34621-3 0  9991
2 35428 038.9503 223.6628 2281662 215.8853 126.4989 11.10601328355678
Source of the keplerian elements: AFSPC